[[{"header":{"parameterUnit":"m.s-1","parameterCategory":1,"la1":30.2991,"la2":30.254,"lo1":-89.0895,"lo2":-89.0444,"dy":0.0017,"dx":0.0017,"nx":28,"ny":28,"refTime":"2025-08-21T21:00:00:Z","depth":0,"parameterNumber":2,"parameterNumberName":"U-component_of_WINDS"},"data":[0,0,0,0,0,0,0,0,0,0,0,0,0,0,0,0,0,0,0,0,0,0,0,0,0,0,0,0,0,0,0,0,0,0,0,0,0,0,0,0,0,0,0,0,0,0,0,0,0,0,0,0,0,0,0,0,0,0,0.7838,0.7838,0,0.7846,0.7846,0.7846,0.7857,0.7857,0.7857,0.7857,0.7865,0.7865,0.7865,0,0,0,0,0,0,0,0,0,0,0,0,0,0.7832,0.7832,0.7838,0.7838,0.7838,0.7846,0.7846,0.7846,0.7857,0.7857,0.7857,0.7857,0.7865,0.7865,0.7865,0,0,0,0,0,0,0,0,0,0,0,0,0,0.7836,0.7832,0.7838,0.7844,0.7845,0.7846,0.7846,0.7846,0.7857,0.7857,0.7857,0.7857,0.7865,0.7865,0.7865,0.7859,0,0,0.7865,0.7865,0,0,0,0,0,0,0,0,0.7836,0.7837,0.7843,0.7844,0.7845,0.785,0.7846,0.785,0.7857,0.7852,0.7857,0.7858,0.786,0.786,0.7861,0.786,0.786,0.7865,0.7865,0.7865,0.7865,0,0,0,0,0,0,0,0.7836,0.7836,0.7841,0.7844,0.7844,0.7847,0.7848,0.7847,0.7854,0.7853,0.7853,0.7854,0.786,0.7861,0.7861,0.786,0.7865,0.7865,0.7865,0.7865,0.7853,0.7853,0,0,0,0,0,0,0.7835,0.7836,0.7841,0.7841,0.7841,0.7847,0.7848,0.7848,0.7854,0.7856,0.7854,0.7855,0.7861,0.7861,0.7862,0.7855,0.7865,0.7865,0.7865,0.7854,0.7853,0.7853,0,0,0,0,0,0,0.7834,0.7835,0.784,0.7839,0.784,0.7846,0.7847,0.7848,0.7849,0.7855,0.7857,0.7854,0.7861,0.7862,0.786,0.7855,0.7865,0.7865,0.7854,0.7854,0.7853,0.7842,0,0,0,0,0,0,0.7834,0.7835,0.7833,0.7839,0.784,0.7839,0.7847,0.7848,0.7849,0.785,0.7855,0.7856,0.7861,0.7859,0.786,0.7855,0.7865,0.7855,0.7854,0.7853,0.7842,0.7841,0.7839,0,0,0,0,0,0.7834,0.783,0.7833,0.7834,0.7838,0.7838,0.7839,0.7845,0.7849,0.7847,0.7851,0.7856,0.7856,0.7859,0.7859,0.7855,0.7855,0.7854,0.7853,0.7843,0.7841,0.7839,0,0,0,0,0,0,0.7824,0.7831,0.7834,0.7832,0.7834,0.784,0.7838,0.7843,0.7844,0.7845,0.7852,0.7853,0.785,0.7852,0.7856,0.785,0.7856,0.7855,0.7848,0.7846,0.7845,0.7844,0.7865,0,0,0,0,0,0.7821,0.7821,0.7827,0.7825,0.7826,0.7831,0.7832,0.7836,0.7839,0.784,0.7844,0.7846,0.7846,0.7847,0.7847,0.7843,0.7844,0.784,0.7838,0.7837,0.7836,0.7833,0.7831,0.7851,0.7851,0.7851,0,0,0.7816,0.782,0.782,0.7823,0.7825,0.7824,0.7832,0.7832,0.7831,0.784,0.7838,0.7841,0.7844,0.784,0.7839,0.7842,0.7831,0.7836,0.7835,0.7835,0.7832,0.783,0.7829,0.785,0.785,0.785,0,0,0.7806,0.7809,0.7807,0.7809,0.7812,0.7816,0.7815,0.782,0.7822,0.7821,0.7827,0.7826,0.7827,0.7828,0.7829,0.7819,0.7823,0.7819,0.7811,0.7808,0.7806,0.7805,0.78,0.7799,0.7818,0.7818,0.7818,0,0.7799,0.7799,0.7805,0.7804,0.7804,0.7812,0.7809,0.7811,0.7814,0.7814,0.7818,0.7818,0.7821,0.7817,0.7815,0.7815,0.7814,0.7818,0.7806,0.7805,0.7803,0.7799,0.7797,0.7817,0.7817,0.7817,0.7817,0,0.779,0.7789,0.7787,0.779,0.779,0.7788,0.7793,0.7793,0.7797,0.78,0.7797,0.7801,0.7802,0.7801,0.7805,0.7798,0.78,0.7805,0.7811,0.7801,0.7797,0.7795,0.7816,0.7817,0.7817,0.7817,0,0,0.7775,0.778,0.7779,0.778,0.7783,0.7783,0.7781,0.7781,0.7781,0.7782,0.778,0.778,0.7784,0.7785,0.7789,0.7786,0.7777,0.7791,0.7792,0.7788,0.7768,0.7764,0.7762,0.778,0.778,0.7779,0.7767,0,0.7765,0.7762,0.7767,0.7762,0.7761,0.7768,0.7765,0.7767,0.777,0.7769,0.7772,0.7772,0.7777,0.7778,0.7775,0.7778,0.7773,0.7779,0.7777,0.7777,0.7776,0.776,0.7756,0.7745,0.7766,0.7766,0.7766,0,0.7754,0.7755,0.775,0.7752,0.7752,0.775,0.7751,0.775,0.7752,0.7754,0.7754,0.7759,0.7757,0.7763,0.7759,0.7763,0.7763,0.7764,0.7764,0.7764,0.7771,0.7759,0.7741,0.7739,0.7763,0.7764,0.7764,0,0.7742,0.7742,0.7739,0.7739,0.7743,0.7741,0.7742,0.7744,0.7744,0.7745,0.7744,0.7744,0.7744,0.7744,0.7748,0.7753,0.7744,0.7751,0.7745,0.7745,0.7743,0.7743,0.7724,0.7743,0.7743,0.7743,0.7743,0,0.7731,0.7728,0.7733,0.7731,0.7727,0.7733,0.7728,0.773,0.7732,0.773,0.7736,0.7734,0.774,0.7738,0.7742,0.7737,0.7737,0.7739,0.774,0.7738,0.7738,0.7737,0.7738,0.7743,0.7743,0.7743,0.7743,0,0.7718,0.7721,0.7718,0.7721,0.7722,0.7719,0.7721,0.7719,0.7722,0.7719,0.7719,0.7723,0.7721,0.7726,0.7725,0.7727,0.7721,0.7723,0.772,0.7721,0.7714,0.7715,0.7695,0.7692,0.7713,0.7713,0.7713,0,0.771,0.7707,0.771,0.7709,0.771,0.7708,0.7708,0.7712,0.7712,0.7713,0.771,0.7709,0.7708,0.7705,0.7708,0.7707,0.7709,0.7702,0.7709,0.7707,0.7709,0.7708,0.7708,0.7701,0.7701,0.7701,0.77,0,0.7696,0.7698,0.7697,0.7696,0.7695,0.7695,0.7695,0.7694,0.7699,0.7697,0.7696,0.7695,0.7694,0.7692,0.7692,0.7693,0.7697,0.7698,0.7697,0.7695,0.7693,0.7693,0.7716,0.7699,0.7699,0.7699,0.7699,0.7699,0.7685,0.7682,0.7683,0.7682,0.7682,0.7682,0.768,0.7682,0.768,0.7679,0.7682,0.7679,0.768,0.768,0.768,0.7678,0.7681,0.7679,0.7679,0.7678,0.7677,0.7693,0.7678,0.7678,0.7678,0.7678,0.7678,0,0.767,0.7671,0.7669,0.7669,0.7667,0.7671,0.7671,0.767,0.7667,0.7668,0.7667,0.7664,0.7662,0.7664,0.7663,0.7661,0.7663,0.766,0.766,0.766,0.7674,0.7676,0.7658,0.7658,0.7659,0.7659,0.7659,0.7659,0.7663,0.7658,0.766,0.7655,0.7656,0.7653,0.7653,0.7652,0.7652,0.7649,0.7647,0.7649,0.765,0.7648,0.7646,0.7647,0.7646,0.7643,0.7644,0.7657,0.7659,0.7661,0.7662,0.7643,0.7643,0.763,0.763,0.763]},{"header":{"parameterUnit":"m.s-1","parameterCategory":1,"la1":30.2991,"la2":30.254,"lo1":-89.0895,"lo2":-89.0444,"dy":0.0017,"dx":0.0017,"nx":28,"ny":28,"refTime":"2025-08-21T21:00:00:Z","depth":0,"parameterNumber":3,"parameterNumberName":"V-component_of_WINDS"},"data":[0,0,0,0,0,0,0,0,0,0,0,0,0,0,0,0,0,0,0,0,0,0,0,0,0,0,0,0,0,0,0,0,0,0,0,0,0,0,0,0,0,0,0,0,0,0,0,0,0,0,0,0,0,0,0,0,0,0,0.3792,0.3792,0,0.3855,0.3856,0.3856,0.3871,0.3871,0.387,0.387,0.3935,0.3937,0.3939,0,0,0,0,0,0,0,0,0,0,0,0,0,0.3682,0.3684,0.3791,0.3792,0.3793,0.3855,0.3856,0.3856,0.3871,0.3871,0.387,0.387,0.3934,0.3937,0.3939,0,0,0,0,0,0,0,0,0,0,0,0,0,0.3736,0.3685,0.3791,0.3808,0.381,0.3854,0.3856,0.3857,0.3871,0.3871,0.387,0.387,0.3933,0.3936,0.394,0.3972,0,0,0.3949,0.3951,0,0,0,0,0,0,0,0,0.3733,0.374,0.3805,0.3807,0.3809,0.3854,0.3841,0.3895,0.3872,0.3848,0.387,0.3869,0.3909,0.3914,0.3927,0.3975,0.3978,0.395,0.3952,0.3953,0.3954,0,0,0,0,0,0,0,0.3729,0.3737,0.3817,0.3806,0.3808,0.3812,0.3819,0.3851,0.3881,0.385,0.3851,0.3859,0.391,0.3924,0.3929,0.3979,0.395,0.3952,0.3954,0.3956,0.4054,0.4055,0,0,0,0,0,0,0.3723,0.3734,0.3815,0.3818,0.3769,0.3814,0.3822,0.3841,0.3881,0.3886,0.3859,0.3859,0.3919,0.3925,0.3931,0.3971,0.3953,0.3956,0.3958,0.4054,0.4055,0.4055,0,0,0,0,0,0,0.372,0.373,0.3812,0.3777,0.3787,0.3817,0.3838,0.3842,0.3857,0.3888,0.3893,0.3868,0.3919,0.3927,0.3961,0.3973,0.3957,0.396,0.4053,0.4054,0.4055,0.4051,0,0,0,0,0,0,0.3717,0.3729,0.3742,0.3777,0.3789,0.3842,0.3838,0.3844,0.3862,0.3863,0.3898,0.3903,0.3919,0.3956,0.3964,0.3977,0.3963,0.4052,0.4053,0.4055,0.405,0.4052,0.4053,0,0,0,0,0,0.3713,0.3739,0.3743,0.3752,0.3806,0.3842,0.3849,0.3867,0.3863,0.3876,0.3896,0.3902,0.397,0.396,0.3969,0.3983,0.4051,0.4053,0.4055,0.4049,0.4051,0.4053,0,0,0,0,0,0,0.3705,0.3744,0.3748,0.3786,0.3811,0.3845,0.3862,0.3869,0.3895,0.3895,0.3916,0.3923,0.3956,0.3973,0.3961,0.4015,0.4011,0.4014,0.4004,0.4006,0.4007,0.4003,0.3965,0,0,0,0,0,0.3708,0.3734,0.3766,0.3796,0.3808,0.3833,0.3849,0.386,0.3887,0.3898,0.392,0.3945,0.3972,0.399,0.4017,0.4052,0.4059,0.4066,0.4067,0.4068,0.4071,0.409,0.4093,0.4061,0.4061,0.4061,0,0,0.3714,0.3738,0.3753,0.3795,0.3816,0.3842,0.3842,0.387,0.3889,0.3902,0.3936,0.3953,0.3982,0.4017,0.4033,0.4032,0.4082,0.407,0.4071,0.4074,0.4092,0.4095,0.4098,0.4062,0.4062,0.4061,0,0,0.3737,0.3759,0.3785,0.3805,0.3836,0.3852,0.3858,0.3891,0.3902,0.3936,0.3946,0.3969,0.4015,0.4036,0.4052,0.408,0.4087,0.4088,0.4096,0.4114,0.4117,0.4119,0.4129,0.4132,0.4091,0.4091,0.4091,0,0.3741,0.3781,0.3798,0.3826,0.3843,0.3855,0.3881,0.39,0.3938,0.3949,0.3947,0.4004,0.4025,0.4064,0.407,0.4084,0.4091,0.4085,0.4115,0.4117,0.412,0.4129,0.4133,0.4091,0.4091,0.4091,0.4091,0,0.3783,0.3811,0.3828,0.3864,0.3883,0.391,0.3931,0.3948,0.3957,0.3973,0.4006,0.4031,0.4062,0.4072,0.4082,0.4112,0.411,0.4111,0.4107,0.4123,0.4132,0.4135,0.4091,0.4091,0.4091,0.4091,0,0,0.3806,0.3849,0.3855,0.387,0.3904,0.3925,0.3951,0.3981,0.3996,0.4021,0.4043,0.4081,0.4081,0.41,0.4111,0.4126,0.4146,0.4125,0.4126,0.4128,0.418,0.4179,0.4183,0.415,0.4151,0.4151,0.4177,0,0.3834,0.3882,0.3897,0.3937,0.3961,0.3971,0.3994,0.4017,0.4031,0.4054,0.407,0.4097,0.4096,0.4107,0.4122,0.414,0.4157,0.4139,0.417,0.4171,0.4163,0.4188,0.4188,0.4211,0.4181,0.4182,0.4182,0,0.3873,0.3898,0.394,0.3968,0.3979,0.4,0.4027,0.4049,0.4074,0.4083,0.4103,0.4112,0.4139,0.4132,0.4169,0.4156,0.417,0.418,0.4182,0.4186,0.4178,0.4192,0.4219,0.4223,0.4188,0.4187,0.4187,0,0.3885,0.3928,0.3959,0.3972,0.4006,0.402,0.4034,0.4059,0.4075,0.4099,0.411,0.4136,0.4151,0.4171,0.4187,0.4181,0.4222,0.4217,0.423,0.423,0.424,0.4239,0.4269,0.4248,0.4248,0.4248,0.4248,0,0.3915,0.394,0.3964,0.3983,0.4011,0.4027,0.4055,0.407,0.4091,0.4112,0.4122,0.4142,0.4162,0.4183,0.4196,0.4224,0.4231,0.4239,0.4242,0.4238,0.4237,0.4248,0.4246,0.4249,0.4248,0.4248,0.4248,0,0.3933,0.3951,0.3984,0.4013,0.4021,0.404,0.4064,0.4082,0.4096,0.4123,0.413,0.4152,0.4178,0.4196,0.423,0.4238,0.4268,0.4271,0.426,0.4261,0.4273,0.4272,0.4312,0.4317,0.4292,0.4293,0.4293,0,0.3951,0.3971,0.4001,0.4015,0.403,0.4054,0.407,0.4086,0.4103,0.4131,0.4146,0.4172,0.4194,0.4235,0.4254,0.4279,0.4283,0.4295,0.4287,0.4282,0.4283,0.4281,0.4283,0.4296,0.4297,0.4297,0.4297,0,0.3981,0.3988,0.4012,0.4037,0.4056,0.4077,0.4098,0.411,0.4129,0.4147,0.4173,0.419,0.4224,0.425,0.4276,0.4291,0.4297,0.4299,0.4303,0.43,0.4292,0.4296,0.4263,0.4298,0.4298,0.4298,0.4298,0.4298,0.4,0.4017,0.404,0.4065,0.4082,0.4101,0.4119,0.4135,0.4157,0.4186,0.4193,0.4221,0.4243,0.4279,0.4294,0.4315,0.4314,0.432,0.4322,0.4323,0.4323,0.4288,0.432,0.432,0.432,0.432,0.432,0,0.403,0.4045,0.4068,0.4096,0.4115,0.4119,0.4141,0.4157,0.4181,0.4201,0.4222,0.4252,0.4276,0.4296,0.4321,0.4334,0.4337,0.434,0.434,0.4343,0.4323,0.4316,0.4337,0.4337,0.4337,0.4337,0.4337,0.4337,0.4048,0.4077,0.4086,0.4123,0.4138,0.4164,0.4177,0.4194,0.421,0.4242,0.4262,0.4275,0.4295,0.4321,0.4343,0.4348,0.4357,0.4359,0.4365,0.4346,0.4344,0.4342,0.4336,0.4361,0.4361,0.4383,0.4383,0.4383]}]]